Weather History for Oklahoma City Wiley Post, OK

Change the Weather History Date:

Monday, November 11, 2013

  Actual Average Record
Temperature  
Mean Temperature 56 °F -  
Max Temperature 69 °F 61 °F 80 °F (1999)
Min Temperature 41 °F 37 °F 22 °F (1960)
Degree Days  
Heating Degree Days 9    
Growing Degree Days 6 (Base 50)    
Moisture  
Dew Point 48 °F    
Average Humidity 74    
Maximum Humidity 86    
Minimum Humidity 57    
Precipitation  
Precipitation 0.00 in - - ()
Sea Level Pressure  
Sea Level Pressure 30.25 in    
Wind  
Wind Speed 12 mph (WSW)    
Max Wind Speed 28 mph    
Max Gust Speed 34 mph    
Visibility 7 miles    
Events Rain    
Averages and records for this station are not official NWS values.
T = Trace of Precipitation, MM = Missing Value Source: NWS Daily Summary

Daily Weather History Graph

Daily Weather History Graph

Search for Another Location

Airport:

Trip Planner

Search our weather history database for the weather conditions in past years. The results will help you decide how hot, cold, wet, or windy it might be!

Date:

Astronomy

Nov. 11, 2013 Rise Set
Actual Time 7:02 AM CST 5:26 PM CST
Civil Twilight 6:35 AM CST 5:53 PM CST
Nautical Twilight 6:04 AM CST 6:23 PM CST
Astronomical Twilight 5:34 AM CST 6:54 PM CST
Moon 1:56 PM CST (11/11) 1:01 AM CST (11/11)
Length of Visible Light 11h 17m
Length of Day
10h 24m
Waxing Gibbous, 66% of the Moon is Illuminated
Nov 11
Waxing Gibbous
Nov 17
Full
Nov 25
Last Quarter
Dec 2
New
Dec 9
First Quarter

Hourly Weather History & Observations

Time (CST) Temp. Windchill Dew Point Humidity Pressure Visibility Wind Dir Wind Speed Gust Speed Precip Events Conditions
12:53 AM 55.0 °F - 46.0 °F 72% 30.23 in 9.0 mi South 9.2 mph - N/A   Mostly Cloudy
1:53 AM 55.9 °F - 46.9 °F 72% 30.22 in 9.0 mi South 11.5 mph - N/A   Overcast
2:53 AM 55.0 °F - 48.0 °F 77% 30.20 in 9.0 mi South 11.5 mph - N/A   Mostly Cloudy
3:53 AM 54.0 °F - 48.0 °F 80% 30.21 in 8.0 mi SSW 10.4 mph - N/A   Overcast
4:16 AM 53.6 °F - 48.2 °F 82% 30.22 in 8.0 mi SSW 9.2 mph - N/A   Overcast
4:38 AM 55.4 °F - 48.2 °F 77% 30.22 in 8.0 mi SSW 10.4 mph - N/A   Overcast
4:53 AM 55.0 °F - 48.9 °F 80% 30.21 in 8.0 mi SSW 11.5 mph - N/A   Overcast
5:53 AM 55.0 °F - 48.0 °F 77% 30.21 in 7.0 mi SSW 12.7 mph - N/A   Overcast
6:53 AM 54.0 °F - 48.0 °F 80% 30.21 in 7.0 mi SSW 11.5 mph - N/A   Partly Cloudy
7:53 AM 54.0 °F - 48.0 °F 80% 30.22 in 6.0 mi South 12.7 mph - N/A   Haze
8:53 AM 57.9 °F - 50.0 °F 75% 30.22 in 7.0 mi SSW 15.0 mph - N/A   Clear
9:53 AM 61.0 °F - 51.1 °F 70% 30.22 in 7.0 mi SSW 13.8 mph - N/A   Clear
10:53 AM 64.0 °F - 52.0 °F 65% 30.22 in 8.0 mi SSW 15.0 mph - N/A   Clear
11:53 AM 66.9 °F - 53.1 °F 61% 30.20 in 8.0 mi SSW 10.4 mph - N/A   Clear
12:53 PM 68.0 °F - 53.1 °F 59% 30.18 in 8.0 mi SW 11.5 mph - N/A   Mostly Cloudy
1:53 PM 69.1 °F - 53.1 °F 57% 30.16 in 8.0 mi SW 5.8 mph - N/A   Overcast
2:53 PM 69.1 °F - 53.1 °F 57% 30.16 in 8.0 mi WSW 4.6 mph - N/A   Overcast
3:53 PM 68.0 °F - 55.0 °F 63% 30.17 in 7.0 mi North 11.5 mph - N/A   Overcast
4:53 PM 64.9 °F - 54.0 °F 68% 30.19 in 6.0 mi North 12.7 mph - N/A   Haze
5:39 PM 62.6 °F - 53.6 °F 72% 30.22 in 7.0 mi North 10.4 mph - N/A   Overcast
5:53 PM 63.0 °F - 54.0 °F 72% 30.22 in 7.0 mi North 10.4 mph - N/A   Overcast
6:53 PM 61.0 °F - 53.1 °F 75% 30.26 in 6.0 mi North 15.0 mph - N/A   Haze
7:26 PM 57.2 °F - 50.0 °F 77% 30.29 in 6.0 mi North 18.4 mph 26.5 mph N/A   Haze
7:50 PM 51.8 °F - 46.4 °F 82% 30.33 in 6.0 mi North 23.0 mph 32.2 mph 0.00 in Rain Light Rain
7:53 PM 50.0 °F - 45.0 °F 83% 30.33 in 6.0 mi North 21.9 mph 29.9 mph 0.00 in Rain Light Rain
8:53 PM 46.0 °F 38.0 °F 42.1 °F 86% 30.38 in 8.0 mi North 21.9 mph 28.8 mph 0.00 in   Overcast
9:53 PM 44.1 °F 34.6 °F 37.9 °F 79% 30.42 in 7.0 mi North 26.5 mph 34.5 mph N/A   Overcast
10:53 PM 43.0 °F 34.0 °F 37.0 °F 80% 30.46 in 7.0 mi North 21.9 mph 29.9 mph N/A   Overcast
11:53 PM 41.0 °F 30.2 °F 34.0 °F 76% 30.48 in 7.0 mi North 27.6 mph 33.4 mph N/A   Overcast